Time,TemperatureF,DewpointF,PressureIn,WindDirection,WindDirectionDegrees,WindSpeedMPH,WindSpeedGustMPH,Humidity,HourlyPrecipIn,Conditions,Clouds,dailyrainin,SoftwareType,DateUTC
2013-03-07 00:12:00,66.0,42.0,29.96,West,271,0.0,-999.0,41,-99.99,,,-99.99,,2013-03-07 05:12:00,
2013-03-07 00:22:00,66.0,42.0,29.95,West,271,0.0,-999.0,41,-99.99,,,-99.99,,2013-03-07 05:22:00,
2013-03-07 00:32:00,66.0,42.0,29.94,West,271,0.0,-999.0,41,-99.99,,,-99.99,,2013-03-07 05:32:00,
2013-03-07 00:42:00,66.0,42.0,29.94,West,271,0.0,-999.0,41,-99.99,,,-99.99,,2013-03-07 05:42:00,
2013-03-07 00:52:00,65.0,40.0,29.94,West,271,0.0,-999.0,40,-99.99,,,-99.99,,2013-03-07 05:52:00,
2013-03-07 01:02:00,65.0,40.0,29.93,West,271,0.0,-999.0,40,-99.99,,,-99.99,,2013-03-07 06:02:00,
2013-03-07 01:11:00,65.0,40.0,29.93,West,271,0.0,-999.0,40,-99.99,,,-99.99,,2013-03-07 06:11:00,
2013-03-07 01:21:00,65.0,40.0,29.94,West,271,0.0,-999.0,40,-99.99,,,-99.99,,2013-03-07 06:21:00,
2013-03-07 01:32:00,65.0,40.0,29.96,West,271,0.0,-999.0,40,-99.99,,,-99.99,,2013-03-07 06:32:00,
2013-03-07 01:42:00,65.0,40.0,29.96,West,271,0.0,-999.0,40,-99.99,,,-99.99,,2013-03-07 06:42:00,
2013-03-07 01:52:00,64.0,39.0,29.96,West,271,0.0,-999.0,40,-99.99,,,-99.99,,2013-03-07 06:52:00,
2013-03-07 02:01:00,64.0,39.0,29.98,West,271,0.0,-999.0,40,-99.99,,,-99.99,,2013-03-07 07:01:00,
2013-03-07 02:11:00,64.0,39.0,29.98,West,271,0.0,-999.0,40,-99.99,,,-99.99,,2013-03-07 07:11:00,
2013-03-07 02:22:00,64.0,39.0,29.98,West,271,0.0,-999.0,40,-99.99,,,-99.99,,2013-03-07 07:22:00,
2013-03-07 02:32:00,64.0,39.0,29.98,West,271,0.0,-999.0,40,-99.99,,,-99.99,,2013-03-07 07:32:00,
2013-03-07 02:43:00,64.0,39.0,29.98,West,271,0.0,-999.0,40,-99.99,,,-99.99,,2013-03-07 07:43:00,
2013-03-07 02:52:00,64.0,40.0,29.98,West,271,0.0,-999.0,41,-99.99,,,-99.99,,2013-03-07 07:52:00,
2013-03-07 03:03:00,64.0,40.0,29.99,West,271,0.0,-999.0,41,-99.99,,,-99.99,,2013-03-07 08:03:00,
2013-03-07 03:12:00,64.0,40.0,29.99,West,271,0.0,-999.0,41,-99.99,,,-99.99,,2013-03-07 08:12:00,
2013-03-07 03:23:00,64.0,40.0,29.99,West,271,0.0,-999.0,41,-99.99,,,-99.99,,2013-03-07 08:23:00,
2013-03-07 03:33:00,64.0,40.0,29.98,West,271,0.0,-999.0,41,-99.99,,,-99.99,,2013-03-07 08:33:00,
2013-03-07 03:44:00,64.0,40.0,29.98,West,271,0.0,-999.0,41,-99.99,,,-99.99,,2013-03-07 08:44:00,
2013-03-07 03:53:00,64.0,40.0,29.99,West,271,0.0,-999.0,41,-99.99,,,-99.99,,2013-03-07 08:53:00,
2013-03-07 04:03:00,64.0,40.0,30.00,West,271,0.0,-999.0,41,-99.99,,,-99.99,,2013-03-07 09:03:00,
2013-03-07 04:13:00,64.0,40.0,30.00,West,271,0.0,-999.0,41,-99.99,,,-99.99,,2013-03-07 09:13:00,
2013-03-07 04:23:00,64.0,40.0,30.00,West,271,0.0,-999.0,41,-99.99,,,-99.99,,2013-03-07 09:23:00,
2013-03-07 04:33:00,63.0,39.0,30.00,West,271,0.0,-999.0,41,-99.99,,,-99.99,,2013-03-07 09:33:00,
2013-03-07 04:43:00,63.0,39.0,30.00,West,271,0.0,-999.0,41,-99.99,,,-99.99,,2013-03-07 09:43:00,
2013-03-07 04:52:00,63.0,38.0,30.00,West,271,0.0,-999.0,40,-99.99,,,-99.99,,2013-03-07 09:52:00,
2013-03-07 05:04:00,63.0,38.0,30.00,West,271,0.0,-999.0,40,-99.99,,,-99.99,,2013-03-07 10:04:00,
2013-03-07 05:13:00,63.0,38.0,30.00,West,271,0.0,-999.0,40,-99.99,,,-99.99,,2013-03-07 10:13:00,
2013-03-07 05:23:00,63.0,38.0,30.02,West,271,0.0,-999.0,40,-99.99,,,-99.99,,2013-03-07 10:23:00,
2013-03-07 05:33:00,63.0,38.0,30.03,West,271,0.0,-999.0,40,-99.99,,,-99.99,,2013-03-07 10:33:00,
2013-03-07 05:43:00,63.0,38.0,30.03,West,271,0.0,-999.0,40,-99.99,,,-99.99,,2013-03-07 10:43:00,
2013-03-07 05:52:00,63.0,38.0,30.03,West,271,0.0,-999.0,40,-99.99,,,-99.99,,2013-03-07 10:52:00,
2013-03-07 06:03:00,62.0,37.0,30.03,West,271,0.0,-999.0,40,-99.99,,,-99.99,,2013-03-07 11:03:00,
2013-03-07 06:12:00,62.0,37.0,30.03,West,271,0.0,-999.0,40,-99.99,,,-99.99,,2013-03-07 11:12:00,
2013-03-07 06:23:00,62.0,37.0,30.04,West,271,0.0,-999.0,40,-99.99,,,-99.99,,2013-03-07 11:23:00,
2013-03-07 06:33:00,62.0,37.0,30.04,West,271,0.0,-999.0,40,-99.99,,,-99.99,,2013-03-07 11:33:00,
2013-03-07 06:43:00,62.0,37.0,30.04,West,271,0.0,-999.0,40,-99.99,,,-99.99,,2013-03-07 11:43:00,
2013-03-07 06:53:00,62.0,37.0,30.04,West,271,0.0,-999.0,40,-99.99,,,-99.99,,2013-03-07 11:53:00,
2013-03-07 07:03:00,62.0,37.0,30.04,West,271,0.0,-999.0,40,-99.99,,,-99.99,,2013-03-07 12:03:00,
2013-03-07 07:12:00,62.0,37.0,30.04,West,271,0.0,-999.0,40,-99.99,,,-99.99,,2013-03-07 12:12:00,
2013-03-07 07:23:00,61.0,37.0,30.04,West,271,0.0,-999.0,41,-99.99,,,-99.99,,2013-03-07 12:23:00,
2013-03-07 07:33:00,61.0,37.0,30.05,West,271,0.0,-999.0,41,-99.99,,,-99.99,,2013-03-07 12:33:00,
2013-03-07 07:43:00,61.0,37.0,30.05,West,271,0.0,-999.0,41,-99.99,,,-99.99,,2013-03-07 12:43:00,
2013-03-07 07:52:00,62.0,39.0,30.06,West,271,0.0,-999.0,42,-99.99,,,-99.99,,2013-03-07 12:52:00,
2013-03-07 08:03:00,62.0,41.0,30.07,West,273,0.0,-999.0,46,-99.99,,,-99.99,,2013-03-07 13:03:00,
2013-03-07 08:12:00,62.0,41.0,30.07,West,273,0.0,-999.0,46,-99.99,,,-99.99,,2013-03-07 13:12:00,
2013-03-07 08:23:00,63.0,41.0,30.08,West,270,0.0,-999.0,44,-99.99,,,-99.99,,2013-03-07 13:23:00,
2013-03-07 08:33:00,63.0,40.0,30.09,West,270,0.0,-999.0,43,-99.99,,,-99.99,,2013-03-07 13:33:00,
2013-03-07 08:42:00,63.0,40.0,30.09,West,270,0.0,-999.0,43,-99.99,,,-99.99,,2013-03-07 13:42:00,
2013-03-07 08:53:00,63.0,40.0,30.08,West,270,0.0,-999.0,43,-99.99,,,-99.99,,2013-03-07 13:53:00,
2013-03-07 09:02:00,63.0,40.0,30.08,West,270,0.0,-999.0,43,-99.99,,,-99.99,,2013-03-07 14:02:00,
2013-03-07 09:12:00,63.0,40.0,30.08,West,270,0.0,-999.0,43,-99.99,,,-99.99,,2013-03-07 14:12:00,
2013-03-07 09:23:00,63.0,40.0,30.08,West,270,0.0,-999.0,42,-99.99,,,-99.99,,2013-03-07 14:23:00,
2013-03-07 09:33:00,63.0,40.0,29.89,West,270,0.0,-999.0,42,-99.99,,,-99.99,,2013-03-07 14:33:00,
2013-03-07 09:42:00,63.0,40.0,29.89,West,270,0.0,-999.0,42,-99.99,,,-99.99,,2013-03-07 14:42:00,
2013-03-07 09:53:00,63.0,40.0,29.90,West,270,0.0,-999.0,42,-99.99,,,-99.99,,2013-03-07 14:53:00,
2013-03-07 10:03:00,63.0,40.0,29.90,West,270,0.0,-999.0,42,-99.99,,,-99.99,,2013-03-07 15:03:00,
2013-03-07 10:12:00,63.0,40.0,29.90,West,270,0.0,-999.0,42,-99.99,,,-99.99,,2013-03-07 15:12:00,
2013-03-07 10:23:00,63.0,40.0,29.91,West,270,0.0,-999.0,42,-99.99,,,-99.99,,2013-03-07 15:23:00,
2013-03-07 10:33:00,63.0,39.0,29.91,West,270,0.0,-999.0,41,-99.99,,,-99.99,,2013-03-07 15:33:00,
2013-03-07 10:42:00,63.0,39.0,29.91,West,270,0.0,-999.0,41,-99.99,,,-99.99,,2013-03-07 15:42:00,
2013-03-07 10:52:00,63.0,39.0,29.92,West,270,0.0,-999.0,41,-99.99,,,-99.99,,2013-03-07 15:52:00,
2013-03-07 11:02:00,63.0,40.0,29.93,West,270,0.0,-999.0,42,-99.99,,,-99.99,,2013-03-07 16:02:00,
2013-03-07 11:13:00,63.0,40.0,29.93,West,270,0.0,-999.0,42,-99.99,,,-99.99,,2013-03-07 16:13:00,
2013-03-07 11:23:00,63.0,40.0,29.93,West,270,0.0,-999.0,42,-99.99,,,-99.99,,2013-03-07 16:23:00,
2013-03-07 11:33:00,63.0,40.0,29.93,West,270,0.0,-999.0,42,-99.99,,,-99.99,,2013-03-07 16:33:00,
2013-03-07 11:43:00,63.0,40.0,29.93,West,270,0.0,-999.0,42,-99.99,,,-99.99,,2013-03-07 16:43:00,
2013-03-07 11:52:00,63.0,40.0,29.93,West,270,0.0,-999.0,42,-99.99,,,-99.99,,2013-03-07 16:52:00,
2013-03-07 12:02:00,64.0,42.0,29.93,South,187,0.0,-999.0,44,-99.99,,,-99.99,,2013-03-07 17:02:00,
2013-03-07 12:12:00,64.0,42.0,29.93,South,187,0.0,-999.0,44,-99.99,,,-99.99,,2013-03-07 17:12:00,
2013-03-07 12:23:00,44.0,21.0,30.02,South,187,0.0,-999.0,40,-99.99,,,-99.99,,2013-03-07 17:23:00,
2013-03-07 12:33:00,40.0,22.0,30.05,South,187,0.0,-999.0,49,-99.99,,,-99.99,,2013-03-07 17:33:00,
2013-03-07 12:43:00,40.0,22.0,30.05,South,187,0.0,-999.0,49,-99.99,,,-99.99,,2013-03-07 17:43:00,
2013-03-07 12:53:00,39.0,23.0,30.05,South,187,0.0,-999.0,52,-99.99,,,-99.99,,2013-03-07 17:53:00,
2013-03-07 13:04:00,40.0,23.0,30.05,South,187,0.0,-999.0,51,-99.99,,,-99.99,,2013-03-07 18:04:00,
2013-03-07 13:22:00,40.0,24.0,30.04,South,187,0.0,-999.0,52,-99.99,,,-99.99,,2013-03-07 18:22:00,
2013-03-07 13:32:00,40.0,22.0,30.03,South,187,0.0,-999.0,49,-99.99,,,-99.99,,2013-03-07 18:32:00,
2013-03-07 13:42:00,40.0,22.0,30.03,South,187,0.0,-999.0,49,-99.99,,,-99.99,,2013-03-07 18:42:00,
2013-03-07 13:52:00,41.0,23.0,30.02,South,187,0.0,-999.0,49,-99.99,,,-99.99,,2013-03-07 18:52:00,
2013-03-07 14:03:00,41.0,22.0,30.02,South,187,0.0,-999.0,47,-99.99,,,-99.99,,2013-03-07 19:03:00,
2013-03-07 14:12:00,41.0,22.0,30.02,South,187,0.0,-999.0,47,-99.99,,,-99.99,,2013-03-07 19:12:00,
2013-03-07 14:23:00,42.0,23.0,30.01,South,187,0.0,-999.0,46,-99.99,,,-99.99,,2013-03-07 19:23:00,
2013-03-07 14:35:00,42.0,21.0,30.01,South,187,0.0,-999.0,43,-99.99,,,-99.99,,2013-03-07 19:35:00,
2013-03-07 14:43:00,42.0,21.0,30.01,South,187,0.0,-999.0,43,-99.99,,,-99.99,,2013-03-07 19:43:00,
2013-03-07 14:52:00,43.0,22.0,30.01,South,187,0.0,-999.0,42,-99.99,,,-99.99,,2013-03-07 19:52:00,
2013-03-07 15:02:00,43.0,23.0,30.00,South,187,0.0,-999.0,44,-99.99,,,-99.99,,2013-03-07 20:02:00,
2013-03-07 15:13:00,43.0,23.0,30.00,South,187,0.0,-999.0,44,-99.99,,,-99.99,,2013-03-07 20:13:00,
2013-03-07 15:22:00,44.0,23.0,30.01,South,187,0.0,-999.0,44,-99.99,,,-99.99,,2013-03-07 20:22:00,
2013-03-07 15:34:00,44.0,17.0,30.01,West,263,0.0,-999.0,33,-99.99,,,-99.99,,2013-03-07 20:34:00,
2013-03-07 15:43:00,44.0,17.0,30.01,West,263,0.0,-999.0,33,-99.99,,,-99.99,,2013-03-07 20:43:00,
2013-03-07 15:53:00,45.0,14.0,30.01,NNW,335,5.0,-999.0,28,-99.99,,,-99.99,,2013-03-07 20:53:00,
2013-03-07 16:03:00,46.0,16.0,30.01,NW,304,3.0,-999.0,30,-99.99,,,-99.99,,2013-03-07 21:03:00,
2013-03-07 16:12:00,46.0,16.0,30.01,NW,304,3.0,-999.0,30,-99.99,,,-99.99,,2013-03-07 21:12:00,
2013-03-07 16:23:00,46.0,18.0,30.01,WNW,290,3.0,-999.0,32,-99.99,,,-99.99,,2013-03-07 21:23:00,
2013-03-07 16:33:00,45.0,20.0,30.01,NW,317,5.0,-999.0,36,-99.99,,,-99.99,,2013-03-07 21:33:00,
2013-03-07 16:43:00,45.0,20.0,30.01,NW,317,5.0,-999.0,36,-99.99,,,-99.99,,2013-03-07 21:43:00,
2013-03-07 16:52:00,46.0,22.0,30.01,WNW,285,4.0,-999.0,38,-99.99,,,-99.99,,2013-03-07 21:52:00,
2013-03-07 17:02:00,46.0,22.0,30.00,SW,234,3.0,-999.0,38,-99.99,,,-99.99,,2013-03-07 22:02:00,
2013-03-07 17:12:00,46.0,22.0,30.00,SW,234,3.0,-999.0,38,-99.99,,,-99.99,,2013-03-07 22:12:00,
2013-03-07 17:23:00,46.0,21.0,30.01,NNW,331,3.0,-999.0,36,-99.99,,,-99.99,,2013-03-07 22:23:00,
2013-03-07 17:33:00,45.0,22.0,30.02,NNW,333,4.0,-999.0,39,-99.99,,,-99.99,,2013-03-07 22:33:00,
2013-03-07 17:43:00,45.0,22.0,30.02,NNW,333,4.0,-999.0,39,-99.99,,,-99.99,,2013-03-07 22:43:00,
2013-03-07 17:53:00,45.0,21.0,30.02,NNW,330,3.0,-999.0,38,-99.99,,,-99.99,,2013-03-07 22:53:00,
2013-03-07 18:03:00,44.0,19.0,30.03,NW,319,4.0,-999.0,36,-99.99,,,-99.99,,2013-03-07 23:03:00,
2013-03-07 18:13:00,44.0,19.0,30.03,NW,319,4.0,-999.0,36,-99.99,,,-99.99,,2013-03-07 23:13:00,
2013-03-07 18:22:00,43.0,19.0,30.04,NW,322,4.0,-999.0,37,-99.99,,,-99.99,,2013-03-07 23:22:00,
2013-03-07 18:34:00,42.0,18.0,30.04,NW,321,3.0,-999.0,38,-99.99,,,-99.99,,2013-03-07 23:34:00,
2013-03-07 18:43:00,42.0,18.0,30.04,NW,321,3.0,-999.0,38,-99.99,,,-99.99,,2013-03-07 23:43:00,
2013-03-07 18:53:00,41.0,15.0,30.05,WNW,294,4.0,-999.0,35,-99.99,,,-99.99,,2013-03-07 23:53:00,
2013-03-07 19:04:00,40.0,16.0,30.07,North,349,3.0,-999.0,38,-99.99,,,-99.99,,2013-03-08 00:04:00,
2013-03-07 19:13:00,40.0,16.0,30.07,North,349,3.0,-999.0,38,-99.99,,,-99.99,,2013-03-08 00:13:00,
2013-03-07 19:23:00,39.0,16.0,30.08,NW,317,3.0,-999.0,38,-99.99,,,-99.99,,2013-03-08 00:23:00,
2013-03-07 19:34:00,38.0,15.0,30.08,NW,323,4.0,-999.0,39,-99.99,,,-99.99,,2013-03-08 00:34:00,
2013-03-07 19:44:00,38.0,15.0,30.08,NW,323,4.0,-999.0,39,-99.99,,,-99.99,,2013-03-08 00:44:00,
2013-03-07 19:53:00,38.0,16.0,30.09,NW,325,5.0,-999.0,41,-99.99,,,-99.99,,2013-03-08 00:53:00,
2013-03-07 20:02:00,37.0,16.0,30.08,NNW,348,6.0,-999.0,42,-99.99,,,-99.99,,2013-03-08 01:02:00,
2013-03-07 20:11:00,37.0,16.0,30.08,NNW,348,6.0,-999.0,42,-99.99,,,-99.99,,2013-03-08 01:11:00,
2013-03-07 20:22:00,37.0,17.0,30.09,NW,323,4.0,-999.0,43,-99.99,,,-99.99,,2013-03-08 01:22:00,
2013-03-07 20:42:00,37.0,17.0,30.09,NNW,329,3.0,-999.0,44,-99.99,,,-99.99,,2013-03-08 01:42:00,
2013-03-07 20:52:00,37.0,17.0,30.09,NNW,329,3.0,-999.0,44,-99.99,,,-99.99,,2013-03-08 01:52:00,
2013-03-07 21:02:00,37.0,17.0,30.09,NW,315,2.0,-999.0,43,-99.99,,,-99.99,,2013-03-08 02:02:00,
2013-03-07 21:12:00,37.0,16.0,30.09,NW,316,2.0,-999.0,42,-99.99,,,-99.99,,2013-03-08 02:12:00,
2013-03-07 21:22:00,37.0,16.0,30.09,NW,316,2.0,-999.0,42,-99.99,,,-99.99,,2013-03-08 02:22:00,
2013-03-07 21:32:00,37.0,16.0,30.10,WNW,286,2.0,-999.0,42,-99.99,,,-99.99,,2013-03-08 02:32:00,
2013-03-07 21:42:00,37.0,16.0,30.10,WNW,286,2.0,-999.0,42,-99.99,,,-99.99,,2013-03-08 02:42:00,
2013-03-07 22:02:00,37.0,16.0,30.10,NNW,328,2.0,-999.0,42,-99.99,,,-99.99,,2013-03-08 03:02:00,
2013-03-07 22:12:00,37.0,16.0,30.10,NNW,328,2.0,-999.0,42,-99.99,,,-99.99,,2013-03-08 03:12:00,
2013-03-07 22:22:00,37.0,18.0,30.10,North,349,1.0,-999.0,45,-99.99,,,-99.99,,2013-03-08 03:22:00,
2013-03-07 22:33:00,37.0,19.0,30.09,NNW,327,4.0,-999.0,48,-99.99,,,-99.99,,2013-03-08 03:33:00,
2013-03-07 22:43:00,37.0,19.0,30.09,NNW,327,4.0,-999.0,48,-99.99,,,-99.99,,2013-03-08 03:43:00,
2013-03-07 22:52:00,36.0,19.0,30.10,NNE,15,3.0,-999.0,49,-99.99,,,-99.99,,2013-03-08 03:52:00,
2013-03-07 23:02:00,37.0,19.0,30.09,North,5,2.0,-999.0,48,-99.99,,,-99.99,,2013-03-08 04:02:00,
2013-03-07 23:12:00,37.0,19.0,30.09,North,5,2.0,-999.0,48,-99.99,,,-99.99,,2013-03-08 04:12:00,
2013-03-07 23:22:00,37.0,18.0,30.09,North,5,3.0,-999.0,46,-99.99,,,-99.99,,2013-03-08 04:22:00,
2013-03-07 23:32:00,37.0,16.0,30.19,NNW,346,2.0,-999.0,42,-99.99,,,-99.99,,2013-03-08 04:32:00,
2013-03-07 23:42:00,37.0,16.0,30.19,NNW,346,2.0,-999.0,42,-99.99,,,-99.99,,2013-03-08 04:42:00,
2013-03-07 23:52:00,37.0,12.0,30.19,NNW,327,3.0,-999.0,35,-99.99,,,-99.99,,2013-03-08 04:52:00,